Location: Milton Keynes
(52.0316°N, 0.7531°W)
Time: 11:12:10
(UTC+00:00)

OTV 5 (USA 277) - Pass Details

Date: 28 January 2019
Orbit: 342 x 346 km, 54.5° (Epoch: 17 February)

Event Time Altitude Azimuth Distance (km) Brightness Sun altitude
Exits shadow 06:05:42 - 203° (SSW) 1,457 ? -15.8°
Reaches altitude 10° 06:06:10 10° 198° (SSW) 1,290 ? -15.8°
Maximum altitude 06:08:32 23° 142° (SE) 784 ? -15.4°
Drops below altitude 10° 06:10:55 10° 87° (E) 1,298 ? -15.1°
Sets 06:13:08 0° 72° (ENE) 2,142 ? -14.7°
